Time,TemperatureF,DewpointF,PressureIn,WindDirection,WindDirectionDegrees,WindSpeedMPH,WindSpeedGustMPH,Humidity,HourlyPrecipIn,Conditions,Clouds,dailyrainin,SoftwareType,DateUTC
2013-07-20 00:10:00,68.5,59.1,29.86,WSW,247,0.0,-999.0,72,-99.99,,,0.00,Acu-Link.com,2013-07-20 05:10:00,
2013-07-20 00:25:00,68.5,59.1,29.86,WSW,247,0.0,-999.0,72,-99.99,,,0.00,Acu-Link.com,2013-07-20 05:25:00,
2013-07-20 00:41:00,68.0,59.0,29.87,ENE,67,0.0,-999.0,73,-99.99,,,0.00,Acu-Link.com,2013-07-20 05:41:00,
2013-07-20 00:56:00,67.8,58.8,29.86,NW,315,0.0,-999.0,73,-99.99,,,0.00,Acu-Link.com,2013-07-20 05:56:00,
2013-07-20 01:11:00,68.2,59.2,29.86,South,180,1.7,-999.0,73,-99.99,,,0.00,Acu-Link.com,2013-07-20 06:11:00,
2013-07-20 01:35:00,69.3,59.9,29.86,WNW,292,0.0,-999.0,72,-99.99,,,0.00,Acu-Link.com,2013-07-20 06:35:00,
2013-07-20 01:51:00,67.6,59.0,29.86,NE,45,0.0,-999.0,74,-99.99,,,0.00,Acu-Link.com,2013-07-20 06:51:00,
2013-07-20 02:06:00,66.7,58.9,29.85,ESE,112,1.7,-999.0,76,-99.99,,,0.00,Acu-Link.com,2013-07-20 07:06:00,
2013-07-20 02:21:00,66.6,58.8,29.85,North,0,0.0,-999.0,76,-99.99,,,0.00,Acu-Link.com,2013-07-20 07:21:00,
2013-07-20 02:37:00,65.8,58.7,29.84,SE,135,1.7,-999.0,78,-99.99,,,0.00,Acu-Link.com,2013-07-20 07:37:00,
2013-07-20 02:52:00,65.8,59.1,29.85,West,270,0.0,-999.0,79,-99.99,,,0.00,Acu-Link.com,2013-07-20 07:52:00,
2013-07-20 03:08:00,65.3,58.6,29.85,SW,225,2.2,-999.0,79,-99.99,,,0.00,Acu-Link.com,2013-07-20 08:08:00,
2013-07-20 03:23:00,65.3,58.6,29.84,SW,225,2.2,-999.0,79,-99.99,,,0.00,Acu-Link.com,2013-07-20 08:23:00,
2013-07-20 03:39:00,66.2,58.8,29.85,WSW,247,1.1,-999.0,77,-99.99,,,0.00,Acu-Link.com,2013-07-20 08:39:00,
2013-07-20 03:54:00,66.9,58.7,29.84,West,270,1.7,-999.0,75,-99.99,,,0.00,Acu-Link.com,2013-07-20 08:54:00,
2013-07-20 04:09:00,66.9,58.0,29.83,WSW,247,0.0,-999.0,73,-99.99,,,0.00,Acu-Link.com,2013-07-20 09:09:00,
2013-07-20 04:24:00,66.2,58.4,29.82,ESE,112,2.2,-999.0,76,-99.99,,,0.00,Acu-Link.com,2013-07-20 09:24:00,
2013-07-20 04:41:00,65.3,57.9,29.83,East,90,0.0,-999.0,77,-99.99,,,0.00,Acu-Link.com,2013-07-20 09:41:00,
2013-07-20 04:56:00,64.8,58.1,29.83,ESE,112,0.0,-999.0,79,-99.99,,,0.00,Acu-Link.com,2013-07-20 09:56:00,
2013-07-20 05:11:00,65.3,58.6,29.84,ESE,112,1.1,-999.0,79,-99.99,,,0.00,Acu-Link.com,2013-07-20 10:11:00,
2013-07-20 05:27:00,65.7,58.6,29.86,West,270,3.2,-999.0,78,-99.99,,,0.00,Acu-Link.com,2013-07-20 10:27:00,
2013-07-20 05:42:00,67.3,59.5,29.93,West,270,8.3,-999.0,76,-99.99,,,0.00,Acu-Link.com,2013-07-20 10:42:00,
2013-07-20 05:57:00,66.2,59.1,29.94,West,270,10.4,-999.0,78,-99.99,,,0.00,Acu-Link.com,2013-07-20 10:57:00,
2013-07-20 06:12:00,66.0,58.6,29.93,West,270,7.3,-999.0,77,-99.99,,,0.00,Acu-Link.com,2013-07-20 11:12:00,
2013-07-20 06:27:00,66.4,59.3,29.93,West,270,5.3,-999.0,78,-99.99,,,0.00,Acu-Link.com,2013-07-20 11:27:00,
2013-07-20 06:45:00,66.2,59.8,29.93,West,270,5.8,-999.0,80,-99.99,,,0.01,Acu-Link.com,2013-07-20 11:45:00,
2013-07-20 07:00:00,65.5,59.5,29.93,SW,225,8.3,-999.0,81,-99.99,,,0.02,Acu-Link.com,2013-07-20 12:00:00,
2013-07-20 07:16:00,64.4,58.8,29.91,WNW,292,8.3,-999.0,82,-99.99,,,0.04,Acu-Link.com,2013-07-20 12:16:00,
2013-07-20 07:31:00,63.9,58.6,29.90,West,270,7.8,-999.0,83,-99.99,,,0.08,Acu-Link.com,2013-07-20 12:31:00,
2013-07-20 07:46:00,63.9,59.0,29.87,WNW,292,5.3,-999.0,84,-99.99,,,0.11,Acu-Link.com,2013-07-20 12:46:00,
2013-07-20 08:01:00,64.0,59.1,29.86,West,270,2.2,-999.0,84,-99.99,,,0.14,Acu-Link.com,2013-07-20 13:01:00,
2013-07-20 08:17:00,64.6,59.7,29.86,SSW,202,2.2,-999.0,84,-99.99,,,0.14,Acu-Link.com,2013-07-20 13:17:00,
2013-07-20 08:32:00,66.0,60.0,29.87,West,270,2.2,-999.0,81,-99.99,,,0.14,Acu-Link.com,2013-07-20 13:32:00,
2013-07-20 08:48:00,67.1,60.7,29.86,SSW,202,3.2,-999.0,80,-99.99,,,0.14,Acu-Link.com,2013-07-20 13:48:00,
2013-07-20 09:03:00,68.2,61.1,29.85,SSW,202,7.8,-999.0,78,-99.99,,,0.14,Acu-Link.com,2013-07-20 14:03:00,
2013-07-20 09:18:00,67.3,60.9,29.83,SW,225,4.2,-999.0,80,-99.99,,,0.14,Acu-Link.com,2013-07-20 14:18:00,
2013-07-20 09:34:00,68.0,61.6,29.85,West,270,1.1,-999.0,80,-99.99,,,0.14,Acu-Link.com,2013-07-20 14:34:00,
2013-07-20 09:49:00,67.8,61.4,29.85,West,270,4.2,-999.0,80,-99.99,,,0.14,Acu-Link.com,2013-07-20 14:49:00,
2013-07-20 10:04:00,70.0,62.4,29.85,West,270,0.0,-999.0,77,-99.99,,,0.14,Acu-Link.com,2013-07-20 15:04:00,
2013-07-20 10:19:00,72.9,62.1,29.85,SSW,202,1.7,-999.0,69,-99.99,,,0.14,Acu-Link.com,2013-07-20 15:19:00,
2013-07-20 10:34:00,73.8,62.1,29.85,WNW,292,1.1,-999.0,67,-99.99,,,0.14,Acu-Link.com,2013-07-20 15:34:00,
2013-07-20 10:50:00,73.9,60.9,29.84,North,0,0.0,-999.0,64,-99.99,,,0.14,Acu-Link.com,2013-07-20 15:50:00,
2013-07-20 11:05:00,76.1,61.2,29.85,West,270,3.2,-999.0,60,-99.99,,,0.14,Acu-Link.com,2013-07-20 16:05:00,
2013-07-20 11:20:00,77.9,61.9,29.85,WNW,292,5.3,-999.0,58,-99.99,,,0.14,Acu-Link.com,2013-07-20 16:20:00,
2013-07-20 11:36:00,78.3,60.3,29.85,WNW,292,5.8,-999.0,54,-99.99,,,0.14,Acu-Link.com,2013-07-20 16:36:00,
2013-07-20 11:52:00,78.6,61.1,29.86,NNW,337,4.7,-999.0,55,-99.99,,,0.14,Acu-Link.com,2013-07-20 16:52:00,
2013-07-20 12:07:00,80.2,60.4,29.86,WNW,292,5.8,-999.0,51,-99.99,,,0.14,Acu-Link.com,2013-07-20 17:07:00,
2013-07-20 12:22:00,79.3,61.7,29.85,NE,45,7.8,-999.0,55,-99.99,,,0.14,Acu-Link.com,2013-07-20 17:22:00,
2013-07-20 12:37:00,79.5,63.9,29.85,NE,45,6.8,-999.0,59,-99.99,,,0.14,Acu-Link.com,2013-07-20 17:37:00,
2013-07-20 12:53:00,78.6,64.0,29.86,ENE,67,2.7,-999.0,61,-99.99,,,0.14,Acu-Link.com,2013-07-20 17:53:00,
2013-07-20 13:08:00,80.6,64.9,29.84,SSE,157,3.2,-999.0,59,-99.99,,,0.14,Acu-Link.com,2013-07-20 18:08:00,
2013-07-20 13:24:00,82.2,64.4,29.83,ESE,112,2.7,-999.0,55,-99.99,,,0.14,Acu-Link.com,2013-07-20 18:24:00,
2013-07-20 13:39:00,80.2,63.6,29.83,East,90,4.2,-999.0,57,-99.99,,,0.14,Acu-Link.com,2013-07-20 18:39:00,
2013-07-20 13:54:00,81.0,64.3,29.84,SSE,157,4.2,-999.0,57,-99.99,,,0.14,Acu-Link.com,2013-07-20 18:54:00,
2013-07-20 14:10:00,81.3,64.1,29.84,NNE,22,2.2,-999.0,56,-99.99,,,0.14,Acu-Link.com,2013-07-20 19:10:00,
2013-07-20 14:25:00,82.0,64.2,29.84,East,90,3.7,-999.0,55,-99.99,,,0.14,Acu-Link.com,2013-07-20 19:25:00,
2013-07-20 14:40:00,80.2,63.6,29.83,NE,45,6.3,-999.0,57,-99.99,,,0.14,Acu-Link.com,2013-07-20 19:40:00,
2013-07-20 14:55:00,82.0,65.2,29.83,NNE,22,6.3,-999.0,57,-99.99,,,0.14,Acu-Link.com,2013-07-20 19:55:00,
2013-07-20 15:10:00,82.6,65.3,29.81,ESE,112,6.8,-999.0,56,-99.99,,,0.14,Acu-Link.com,2013-07-20 20:10:00,
2013-07-20 15:26:00,82.9,65.6,29.83,SE,135,4.7,-999.0,56,-99.99,,,0.14,Acu-Link.com,2013-07-20 20:26:00,
2013-07-20 15:41:00,81.1,64.9,29.83,SSE,157,3.2,-999.0,58,-99.99,,,0.14,Acu-Link.com,2013-07-20 20:41:00,
2013-07-20 16:13:00,80.2,65.5,29.83,NNE,22,3.2,-999.0,61,-99.99,,,0.14,Acu-Link.com,2013-07-20 21:13:00,
2013-07-20 17:03:00,78.8,64.2,29.83,NNE,22,4.2,-999.0,61,-99.99,,,0.14,Acu-Link.com,2013-07-20 22:03:00,
2013-07-20 17:26:00,78.8,64.7,29.81,ESE,112,5.8,-999.0,62,-99.99,,,0.14,Acu-Link.com,2013-07-20 22:26:00,
2013-07-20 18:15:00,78.8,64.7,29.81,ESE,112,5.3,-999.0,62,-99.99,,,0.14,Acu-Link.com,2013-07-20 23:15:00,